Regional Weather Roundup
Issued by NWS

Home | Current Version | Previous Version | Graphics & Text | Print | Product List | Glossary On
Versions: 1 2 3 4 5 6 7 8 9 10 11 12 13 14 15 16 17 18 19 20 21 22 23 24 25 26 27 28 29 30 31 32 33 34 35 36 37 38 39 40 41 42 43 44 45 46 47 48 49 50
000
ASUS43 KDMX 020907
RWRIA

WEATHER ROUNDUP FOR IOWA
NATIONAL WEATHER SERVICE DES MOINES IA
300 AM CST MON MAR 02 2015

NOTE: "FAIR" INDICATES FEW OR NO CLOUDS BELOW 12,000 FEET WITH NO
SIGNIFICANT WEATHER AND/OR OBSTRUCTIONS TO VISIBILITY.

* - THESE STATIONS ARE NOT NWS STATIONS...THUS NOT UNDER NWS
QUALITY CONTROL.  THEY ALSO DO NOT REPORT WEATHER SUCH
AS PRECIPITATION OR FOG.

IAZ001>003-012>014-020>022-031>034-043>046-021000-
   NORTHWEST IOWA

CITY           SKY/WX    TMP DP  RH WIND       PRES   REMARKS
CARROLL *      CLEAR     12   9  85 CALM      30.48S
CHEROKEE *     PTCLDY     9   7  92 CALM      30.47F
DENISON *      CLEAR     10   9  92 CALM      30.46F
LE MARS *      CLEAR      9   7  92 CALM      30.48F
ORANGE CITY *  CLEAR     18  14  86 CALM      30.45F
SHELDON *      CLEAR      7   5  92 CALM      30.44S
SIOUX CITY     PTCLDY    14  10  84 CALM      30.49S
SPENCER        CLEAR      6   3  87 NW5       30.45F WCI  -3
STORM LAKE *   CLEAR     16  12  86 NW3       30.45F
$$

IAZ055>058-069>071-079>083-090>094-021000-
   SOUTHWEST IOWA

CITY           SKY/WX    TMP DP  RH WIND       PRES   REMARKS
ATLANTIC *     CLEAR     16  12  86 CALM      30.49F
AUDUBON *      CLEAR     10   7  85 CALM      30.49R
CLARINDA *     CLEAR     21  18  86 N5        30.52S WCI  15
COUNCIL BLFS * CLEAR     23  16  74 E5        30.47F WCI  17
CRESTON *      CLEAR     23  16  74 N7        30.49S WCI  15
HARLAN  *      CLEAR     14  14 100 CALM      30.52S
LAMONI         MOCLDY    26  17  68 N9        30.48S WCI  17
RED OAK *      MOCLDY    19  18  93 N3        30.50F
SHENANDOAH *   CLEAR     21  19  93 NE6       30.51S WCI  14
$$

IAZ047>049-059>061-072>074-084-021000-
   CENTRAL IOWA

CITY           SKY/WX    TMP DP  RH WIND       PRES   REMARKS
AMES           CLEAR     11   6  81 CALM      30.48F
ANKENY *       CLEAR     14  10  85 CALM      30.51S
CHARITON *     CLOUDY    21  16  79 NW6       30.50R WCI  14
DES MOINES     CLOUDY    20  13  74 W3        30.50F
GRINNELL*      PTCLDY    16  12  86 W5        30.48F WCI   9
KNOXVILLE *    MOCLDY    18  12  79 NW6       30.49R WCI   9
MARSHALLTOWN   PTCLDY    10   7  87 W5        30.47S WCI   2
PELLA *        PTCLDY    18  16  93 NW3       30.51S
PERRY *          N/A     14  12  92 W6        30.50R WCI   5
$$

IAZ004>006-015-016-023>025-035-036-021000-
   NORTH CENTRAL IOWA

CITY           SKY/WX    TMP DP  RH WIND       PRES   REMARKS
ALGONA *       CLEAR     14  10  85 NW7       30.46S WCI   4
CLARION *      CLEAR      9   7  92 CALM      30.47S
ESTHERVILLE    PTCLDY     6   3  87 NW8       30.44S WCI  -7
FORT DODGE *   PTCLDY     9   7  92 CALM      30.47S
MASON CITY     MOCLDY     8   4  83 NW8       30.45S WCI  -4
FOREST CITY *  CLEAR     12   9  85 NW7       30.43F WCI   2
IOWA FALLS *     N/A      3   0  85 W8        30.47S WCI -10
$$

IAZ007>011-017>019-026>030-037>042-050>054-066-021000-
   NORTHEAST IOWA

CITY           SKY/WX    TMP DP  RH WIND       PRES   REMARKS
CEDAR RAPIDS   MOCLDY     8   6  92 W12       30.46R WCI  -7
CHARLES CITY * CLEAR     10   9  92 W7        30.44S WCI   0
CLINTON *      PTCLDY     9   3  78 NW10      30.47S WCI  -6
DECORAH *      CLEAR     14   9  79 NW7       30.39F WCI   4
DUBUQUE        PTCLDY     8   5  87 W8        30.41F WCI  -4
MONTICELLO *   CLEAR     10   7  85 SW5       30.46R WCI   2
OELWEIN *      CLEAR      5   3  92 W7        30.45S WCI  -7
WATERLOO       MOCLDY     7   6  96 W3        30.46S
$$

IAZ064-065-067-068-078-021000-
   EAST CENTRAL IOWA

CITY           SKY/WX    TMP DP  RH WIND       PRES   REMARKS
DAVENPORT      PTCLDY     6   1  80 W7        30.47S WCI  -6
IOWA CITY      MOCLDY    12   8  84 W9        30.50S WCI   0
MT. PLEASANT * MOCLDY    18  14  86 W6        30.49F WCI   9
MUSCATINE *    CLEAR     18  10  73 W7        30.50S WCI   8
QUAD CITIES      N/A     11   7  84 W8        30.48R WCI  -1
$$

IAZ062-063-075>077-085>089-095>099-021000-
   SOUTHEAST IOWA

CITY           SKY/WX    TMP DP  RH WIND       PRES   REMARKS
BURLINGTON     CLOUDY    21  15  78 W5        30.48F WCI  15
FAIRFIELD *    CLOUDY    19  12  73 W8        30.49F WCI   9
FORT MADISON * CLEAR     21  16  79 W3        30.49F
KEOKUK *       CLEAR     18  18 100 SW3       30.49S
OSKALOOSA *      N/A     16  12  86 NW8       30.50S WCI   5
CENTERVILLE *  CLEAR     19  18  93 W6        30.50S WCI  11
OTTUMWA        PTCLDY    20  14  77 NW8       30.49F WCI  10
WASHINGTON *   CLEAR     14  14 100 NW9       30.49S WCI   2
$$

ABBREVIATIONS USED IN REMARKS
   TC - TEMPERATURES IN CELSIUS
  WCI - WIND CHILL INDEX
   HX - HEAT INDEX
  VSB - VISIBILITY
$$



USA.gov is the U.S. government's official web portal to all federal, state and local government web resources and services.